Date,TemperatureHighF,TemperatureAvgF,TemperatureLowF,DewpointHighF,DewpointAvgF,DewpointLowF,HumidityHigh,HumidityAvg,HumidityLow,PressureMaxIn,PressureMinIn,WindSpeedMaxMPH,WindSpeedAvgMPH,GustSpeedMaxMPH,PrecipitationSumIn
2013-1-1,22.1,8.9,-2.4,12.5,1.8,-10.0,84,73,42,30.48,30.31,4,0,8,0.00
2013-1-2,22.1,7.2,-6.3,4.3,-5.1,-14.0,76,59,31,30.66,30.45,13,3,16,0.00
2013-1-3,27.2,7.3,-8.6,0.2,-9.4,-17.2,75,50,22,30.69,30.58,11,2,17,0.00
2013-1-4,37.6,17.8,0.3,6.2,-2.6,-14.0,66,44,18,30.61,30.29,11,1,12,0.00
2013-1-5,31.5,21.6,9.3,13.0,6.5,0.0,77,53,37,30.49,30.26,11,4,16,0.00
2013-1-6,42.8,23.7,2.4,11.0,0.5,-11.0,71,40,15,30.47,30.11,19,3,21,0.00
2013-1-7,44.6,34.1,21.0,9.0,5.2,-2.0,54,31,15,30.11,29.81,12,3,17,0.00
2013-1-8,48.5,34.1,21.9,14.0,6.8,-6.0,65,34,17,30.25,29.79,17,4,23,0.00
2013-1-9,45.8,29.0,16.2,17.0,12.2,6.0,72,52,23,30.40,30.14,21,7,30,0.00
2013-1-10,47.0,35.2,24.5,12.0,6.9,-5.0,57,32,12,30.13,29.47,21,6,23,0.00
2013-1-11,35.3,22.0,4.1,22.0,0.5,-19.0,79,43,15,29.85,29.24,32,10,41,0.00
2013-1-12,14.8,3.8,-7.9,-2.0,-9.8,-19.0,74,55,28,30.30,29.85,11,3,15,0.00
2013-1-13,11.7,1.5,-8.2,3.0,-6.4,-15.0,77,70,45,30.47,30.29,9,2,14,0.00
2013-1-14,12.3,1.8,-11.7,4.0,-4.2,-19.0,79,76,68,30.46,30.35,9,2,12,0.00
2013-1-15,27.0,9.0,-16.6,16.0,-3.6,-25.0,75,59,32,30.63,30.44,13,4,17,0.00
2013-1-16,42.1,26.4,10.5,15.0,11.7,5.0,78,57,32,30.51,30.32,12,2,16,0.00
2013-1-17,42.5,27.1,13.8,16.0,12.5,7.0,76,57,31,30.58,30.35,10,2,15,0.00
2013-1-18,52.2,31.3,15.1,11.0,-0.3,-9.2,61,32,8,30.35,30.13,9,1,15,0.00
2013-1-19,50.8,33.8,10.5,8.0,0.3,-7.7,58,28,9,30.36,30.16,13,3,17,0.00
2013-1-20,42.3,27.5,12.6,12.0,2.8,-6.0,77,39,15,30.29,30.15,20,5,24,0.00
2013-1-21,48.3,27.6,8.8,15.4,5.9,-1.0,83,45,17,30.33,30.21,10,2,15,0.00
2013-1-22,58.0,36.7,18.4,1.0,-9.8,-18.2,46,16,4,30.24,30.09,19,4,24,0.00
2013-1-23,62.7,38.8,16.1,1.3,-8.0,-22.0,30,15,3,30.25,30.12,8,2,15,0.00
2013-1-24,58.4,43.1,24.1,16.4,3.1,-10.0,66,23,9,30.13,29.81,17,4,21,0.00
2013-1-25,43.8,31.4,21.0,23.5,18.7,14.0,81,61,40,30.15,30.01,20,4,28,0.00
2013-1-26,50.8,36.3,21.1,30.0,21.4,15.9,85,59,27,30.12,29.67,10,2,13,0.00
2013-1-27,53.2,37.7,23.2,30.5,20.5,7.9,94,57,19,29.72,29.63,21,6,24,0.00
2013-1-28,50.4,34.8,22.9,26.3,19.2,9.0,91,58,19,29.67,29.41,24,8,28,0.00
2013-1-29,23.0,16.4,11.2,21.0,10.8,0.9,91,79,47,30.08,29.58,18,8,25,0.00
2013-1-30,29.0,13.4,-10.3,14.0,3.5,-18.0,87,66,47,30.20,30.08,14,3,21,0.01
2013-1-31,38.6,25.5,11.4,17.0,10.2,1.0,72,53,34,30.29,30.18,12,3,12,0.01